Regional Weather Roundup
Issued by NWS Burlington, VT

Current Version | Previous Version | Text Only | Print | Product List | Glossary On
Versions: 1 2 3 4 5 6 7 8 9 10 11 12 13 14 15 16 17 18 19 20 21 22 23 24 25 26 27 28 29 30 31 32 33 34 35 36 37 38 39 40 41 42 43 44 45 46 47 48 49 50
000
ASUS41 KBTV 200530
RWRBTV
VERMONT REGIONAL WEATHER ROUNDUP
NATIONAL WEATHER SERVICE BURLINGTON VT
100 AM EDT WED AUG 20 2014

NOTE: "FAIR" INDICATES FEW OR NO CLOUDS BELOW 12,000 FEET WITH NO
SIGNIFICANT WEATHER AND/OR OBSTRUCTIONS TO VISIBILITY.

* THESE REPORTS ARE NOT UNDER NWS QUALITY CONTROL AND/OR DO NOT
  REPORT WEATHER SUCH AS PRECIPITATION AND FOG.

VTZ001>019-200600-
_____VERMONT_____


CITY           SKY/WX    TMP DP  RH WIND       PRES   REMARKS
BURLINGTON     CLEAR     57  54  89 NE3       29.96R
MONTPELIER     CLEAR     51  50  96 CALM      30.03R
MORRISVILLE    FOG       50  48  93 CALM      30.00S VSB 1
ST. JOHNSBURY*   N/A     54  52  93 MISG      29.98R
MIDDLEBURY*    FAIR      53  53 100 CALM      29.96S FOG
RUTLAND*       CLEAR     55  52  88 SE9       29.98S
SPRINGFIELD    PTCLDY    54  53  97 CALM      29.99R
HIGHGATE*      FAIR      55  54  95 SE3       29.95R
NEWPORT*       FAIR      50  50  99 CALM      29.99S
BENNINGTON     CLEAR     54  51  90 CALM      29.97R
SUTTON*          N/A     54 N/A N/A MISG        N/A
MT. MANSFIELD*   N/A     54 N/A N/A S5          N/A

_____LAKE CHAMPLAIN_____


CITY           SKY/WX    TMP DP  RH WIND       PRES   REMARKS
BURTON ISLAND*   N/A     64  59  82 SE7         N/A
COLCHESTER RF*   N/A     64  59  82 N2          N/A
DIAMOND ISL*     N/A     59  57  94 SE3         N/A

$$

NYZ007-026>031-035-052-083-200600-
_____NORTHERN NEW YORK_____


CITY           SKY/WX    TMP DP  RH WIND       PRES   REMARKS
PLATTSBURGH    CLEAR     52  51  97 CALM      29.95R
SARANAC LAKE   CLEAR     45  44  97 CALM      29.96S
MASSENA        CLEAR     56  54  93 CALM      29.93R
OGDENSBURG*    CLEAR     54  54 100 CALM      29.90F
WATERTOWN      PTCLDY    59  53  80 CALM      29.88S
FT DRUM        PTCLDY    62  55  78 SE9       29.89
ALBANY         PTCLDY    61  56  83 CALM      29.95R
GLENS FALLS    MOCLDY    55  52  89 CALM      29.96R

$$
NHZ002-005-011-200600-
_____NEW HAMPSHIRE_____


CITY           SKY/WX    TMP DP  RH WIND       PRES   REMARKS
LEBANON        PTCLDY    53  50  89 CALM      29.98R
KEENE          PTCLDY    54  46  76 CALM      29.99S
MT WASHINGTON  PTCLDY    46  30  53 W8          N/A
PLYMOUTH       FOG       50  50 100 CALM      29.99S VSB 1
WHITEFIELD     CLEAR     49  47  93 CALM      29.99S

$$

_____REGIONAL QUEBEC LOCATIONS_____


CITY           SKY/WX    TMP DP  RH WIND       PRES   REMARKS
MONTREAL       CLEAR     64  55  72 E6        29.93F
QUEBEC CITY    PTCLDY    59  55  88 VRB2      29.95S
SHERBROOKE     CLEAR     54  52  94 E3        29.98S

_____REGIONAL ONTARIO LOCATIONS_____


CITY           SKY/WX    TMP DP  RH WIND       PRES   REMARKS
OTTAWA         CLEAR     57  52  82 NE6       29.92S

______KEY______
VSB  - VISIBILITY IN MILES
WCI  - WIND CHILL INDEX
HX   - HEAT INDEX
$$
NNNN



USA.gov is the U.S. government's official web portal to all federal, state and local government web resources and services.